www.pogodaiklimat.ru

Погода и климат >> Архив погоды >> Кувейт >> Abdaly


ПОГОДА в Abdaly

  • Прогноз погоды в Abdaly
  • Монитор погоды в Abdaly
  • Климат города

АРХИВ ПОГОДЫ в Abdaly

Время (UTC), дата Ветер
(напр.,м/с)
 
Видим.   Явления Облачность Т
(С)
Тd
(С)
f
(%)
Тe
(С)
Тes
(С)
Комфортность P
(гПа)
Po
(гПа)
Тmin
(С)
Tmax
(С)
R
(мм)
R24
(мм)
S
(см)
21 13.09 СЗ 3 6000 м дым н/о +31.6 +1.8 15 +29 +29 жарко 1001.7 1002.0 +28.7 +47.6
00 14.09 СЗ 3 14 км н/о +28.5 +3.7 20 +27 +27 жарко 1001.3 1001.0
03 14.09 СЗ 2 11 км н/о +26.2 +3.9 24 +25 +25 комфорт 1002.0 1002.0
12 14.09 Ю 2 17 км н/о +41.6 +11.4 17 +41 +41 опасность
перегрева
1000.9 1001.0
18 14.09 ЮЗ 2 8000 м дымка н/о +30.8 +13.8 35 +32 +32 жарко 1002.9 1003.0
21 14.09 З 1 8000 м дымка н/о +29.6 +6.4 23 +28 +28 жарко 1003.0 1003.0 +26.1 +45.6
00 15.09 СЗ 3 15 км н/о +29.3 +3.8 20 +27 +27 жарко 1003.0 1003.0
03 15.09 СЗ 2 9000 м дым н/о +27.3 +3.6 22 +26 +26 жарко 1004.0 1004.0
18 15.09 СВ 3 8000 м дым н/о +38.8 +10.1 18 +37 +37 очень
жарко
1005.1 1005.0
00 16.09 С 4 7000 м дымка н/о +31.0 +10.2 28 +31 +31 жарко 1004.5 1005.0
03 16.09 СЗ 4 7000 м дымка н/о +29.3 +9.9 30 +29 +29 жарко 1005.7 1006.0
06 16.09 С 4 11 км н/о +36.3 +9.5 20 +35 +35 очень
жарко
1006.1 1006.0
09 16.09 С 5 11 км н/о +44.2 +10.2 13 +43 +43 опасность
перегрева
1004.3 1004.0
12 16.09 СВ 4 16 км н/о +46.4 +8.5 11 +45 +45 опасность
перегрева
1002.7 1003.0
15 16.09 СВ 4 17 км н/о +41.9 +7.6 13 +40 +40 очень
жарко
1003.0 1003.0
18 16.09 С 5 17 км н/о +38.3 +7.7 16 +36 +36 очень
жарко
1004.5 1005.0
21 16.09 С 3 17 км н/о +34.0 +7.8 20 +32 +32 жарко 1003.7 1004.0 +29.0 +46.8
00 17.09 С 4 19 км н/о +30.3 +7.2 24 +29 +29 жарко 1003.5 1004.0
03 17.09 С 2 19 км н/о +29.3 +6.5 24 +28 +28 жарко 1004.1 1004.0
06 17.09 СВ 3 16 км н/о +37.5 +8.3 17 +36 +36 очень
жарко
1004.7 1005.0
09 17.09 СВ 5 18 км н/о +45.5 +9.4 12 +44 +44 опасность
перегрева
1003.4 1003.0
12 17.09 СВ 4 18 км н/о +44.8 +10.3 13 +43 +43 опасность
перегрева
1001.9 1002.0
15 17.09 С 2 17 км н/о +40.8 +8.4 14 +39 +39 очень
жарко
1002.3 1002.0
18 17.09 С 3 16 км н/о +36.5 +6.0 15 +34 +34 очень
жарко
1003.6 1004.0
21 17.09 С 2 15 км н/о +34.1 +8.3 20 +32 +32 жарко 1003.7 1004.0 +28.4 +47.0
00 18.09 С 2 12 км н/о +30.7 +8.4 25 +30 +30 жарко 1003.3 1003.0
03 18.09 СЗ 3 13 км н/о +29.3 +8.4 27 +29 +29 жарко 1004.4 1004.0
06 18.09 СВ 2 14 км н/о +37.3 +11.9 22 +37 +37 очень
жарко
1005.5 1006.0
09 18.09 СВ 4 13 км н/о +44.1 +11.6 15 +43 +43 опасность
перегрева
1004.0 1004.0
12 18.09 СВ 2 17 км н/о +43.5 +10.1 14 +42 +42 опасность
перегрева
1002.7 1003.0
15 18.09 СВ 2 13 км н/о +39.3 +13.5 22 +37 +37 очень
жарко
1003.1 1003.0
18 18.09 Ю 2 10 км н/о +32.4 +20.7 50 +39 +39 очень
душно
1005.7 1006.0
21 18.09 Ю 2 2300 м дымка н/о +31.4 +30.5 95 +59 +59 опасность
перегрева
1005.9 1006.0 +28.2 +45.8
00 19.09 ЮЗ 1 2400 м дымка н/о +30.0 +30.0 100 +55 +55 опасность
перегрева
1005.4 1005.0
03 19.09 З 3 2100 м дымка н/о +29.2 +28.6 97 +50 +50 опасность
перегрева
1005.5 1006.0
06 19.09 Ю 2 5000 м дымка н/о +35.1 +26.7 62 +52 +52 опасность
перегрева
1007.1 1007.0
09 19.09 Ю 2 8000 м дымка н/о +40.6 +25.1 42 +54 +54 опасность
перегрева
1005.8 1006.0
12 19.09 З 1 10 км н/о +41.5 +22.1 33 +49 +49 опасность
перегрева
1004.3 1004.0
15 19.09 Ю 1 8000 м дымка н/о +34.8 +19.9 42 +41 +41 опасность
перегрева
1004.2 1004.0
18 19.09 ЮЗ 1 7000 м дымка н/о +31.0 +23.8 66 +43 +43 опасность
перегрева
1005.8 1006.0
21 19.09 ЮЗ 1 5000 м дымка н/о +29.9 +26.3 81 +46 +46 опасность
перегрева
1004.9 1005.0 +29.1 +43.2
00 20.09 З 3 6000 м дымка н/о +30.7 +25.2 73 +45 +45 опасность
перегрева
1004.7 1005.0
03 20.09 З 3 6000 м дымка н/о +29.5 +21.6 63 +38 +38 очень
душно
1005.5 1006.0
06 20.09 Ю 1 8000 м дымка н/о +35.4 +22.6 48 +45 +45 опасность
перегрева
1006.9 1007.0
09 20.09 С 2 16 км н/о +44.1 +14.4 18 +45 +45 опасность
перегрева
1005.6 1006.0
12 20.09 С 3 13 км н/о +44.6 +10.7 14 +43 +43 опасность
перегрева
1003.7 1004.0

 

Местоположение метеостанции Abdaly (Кувейт): широта 30.08 долгота 47.70 высота над уровнем моря 70 м.

В архиве по умолчанию представлена погода в Abdaly за последнюю неделю. Архивные данные за месяц целиком и за предыдущие месяцы, начиная с января 2011 года, Вы можете получить, выбрав интересующий диапазон дат из раскрывающегося списка и нажав кнопку "Ввод!".


*Определитесь, кто Вы:
робот инопланетянин человек

Внимание! Время в таблицах - всемирное. Для получения местного времени необходимо прибавить поправку, которая в Abdaly равна 3 ч.

Смотрите также архив погоды в соседних городах и на ближайших метеорологических станциях:

Погода в Sabriyah (Кувейт) (39 км)
Погода в Mitribah (Кувейт) (43 км)
Погода в Basrah Airport (Ирак) (50 км)
Погода в Jal Aliyah (Кувейт) (54 км)
Погода в Basrah (Ирак) (55 км)
Погода в Abadan (Иран) (62 км)
Погода в Bubiyan (Кувейт) (74 км)
Погода в Fao (Ирак) (78 км)
Погода в Jahra (Кувейт) (85 км)
Погода в Failaka Island (Кувейт) (88 км)

Пояснения к столбцам:

Ветер - указаны скорость ветра в м/с - средняя за 10 мин, порывы в срок и между сроками (в фигурных скобках) и направление, откуда дует ветер: С - северный, СВ - северо-восточный, В - восточный, ЮВ - юго-восточный, Ю - южный, ЮЗ - юго-западный, З - западный, СЗ - северо-западный.
Видимость - горизонтальная дальность видимости в метрах или километрах. При видимости от 1 до 10 км при отсутствии осадков обычно наблюдается дымка, при ухудшении видимости до 1 км и менее - туман. В сухую погоду видимость может ухудшаться дымом, пылью или мглою.
Явления - указаны атмосферные явления, наблюдавшиеся в срок или в последний час перед сроком; фигурными скобками обозначены явления, наблюдавшиеся между сроками (за 1-3 часа до срока); квадратными скобками обозначены град или гололедные отложения с указанием их диаметра в мм.
Облачность - указаны через наклонную черту общая и нижняя облачность в баллах и высота нижней границы облаков в метрах; квадратными скобками обозначены формы облаков: Ci - перистые, Cs - перисто-слоистые, Cc - перисто-кучевые, Ac - высококучевые, As - высокослоистые, Sc - слоисто-кучевые, Ns - слоисто-дождевые, Cu - кучевые, Cb - кучево-дождевые. Подробнее классификацию облаков см. в Атласе облаков (PDF).
T - Температура воздуха - температура, измеренная на высоте 2 м над землей.
Td - Температура точки росы - температура, при понижении до которой содержащийся в воздухе водяной пар достигнет насыщения.
f - Относительная влажность воздуха - влажноcть воздуха, измеренная на высоте 2 м над землей.
Te - Эффективная температура - температура, которую ощущает одетый по сезону человек в тени. Характеристика душности погоды. При расчете учитывается влияние влажности воздуха и скорости ветра на теплоощущения человека.
Tes - Эффективная температура на солнце - температура, которую ощущает человек, с поправкой на солнечный нагрев. Характеристика знойности погоды. Зависит от высоты солнца над горизонтом, облачности и скорости ветра. Ночью, в пасмурную погоду, а также при ветре 12 м/с и более поправка равна нулю.
P - Атмосферное давление - приведенное к уровню моря атмосферное давление.
Po - Атмосферное давление - измеренное на уровне метеостанции атмосферное давление.
Tmin - Минимальная температура - минимум температуры воздуха на высоте 2 м над землей.
Tmax - Максимальная температура - максимум температуры воздуха на высоте 2 м над землей.
R - Количество осадков - Количество выпавших осадков за период времени, мм. При наведении курсора мыши на число - период времени, за который выпало указанное количество осадков.
R24 - Количество осадков - Количество выпавших осадков за 24 часа, мм.
S - Снежный покров - Высота снежного покрова, см. При наведении курсора мыши на число - состояние снежного покрова и степень покрытия местности в баллах.